Location: Camp Crooked Creek
(37.9149°N, 85.6607°W)
Time: 06:34:39
(UTC-04:00)

Amateur Radio Satellites - All Passes

Search period start: 24 June 2017 06:04
Search period end: 25 June 2017 06:04
Location: Camp Crooked Creek, 37.9149°N, 85.6607°W

Satellite Date Start Highest point End Downlink Frequencies (MHz)
Time Altitude Azimuth
BEESAT 3 24 Jun 06:06:24 06:07:54 12° 44° (NE) 06:09:23 437.485
CUBESAT XI-V 24 Jun 06:12:29 06:16:39 33° 263° (W) 06:20:50 437.345
AO-7 24 Jun 06:20:18 06:28:17 51° 295° (WNW) 06:36:14 .
STARS 24 Jun 06:20:18 06:24:40 89° 272° (W) 06:29:05 437.465
NO-84 24 Jun 06:25:26 06:29:43 53° 41° (NE) 06:33:51 435.350 FM
AO-85 24 Jun 06:38:59 06:42:57 43° 56° (NE) 06:47:08 145.980
XW-2F 24 Jun 06:46:59 06:47:26 10° 91° (E) 06:47:53 145.980 - 146.000
XW-2D 24 Jun 06:48:40 06:50:14 12° 92° (E) 06:51:48 145.860 - 145.880
ITAMSAT 1 24 Jun 06:53:07 06:55:24 13° 299° (WNW) 06:57:42 435.822/435.867
LilacSat-2 24 Jun 06:54:10 06:56:26 15° 93° (E) 06:58:40 437.200
XW-2B 24 Jun 06:57:00 06:59:16 15° 93° (E) 07:01:30 145.730 - 145.750
BEESAT 2 24 Jun 07:00:32 07:03:00 15° 46° (NE) 07:05:26 435.950
DOVE 4 24 Jun 07:10:38 07:15:30 63° 101° (E) 07:20:37 437.250
XW-2C 24 Jun 07:11:41 07:14:46 24° 96° (E) 07:17:49 145.795 - 145.815
RS-15 24 Jun 07:19:29 07:31:42 75° 57° (ENE) 07:43:12 29.354- 29.394
KAITUO 1B 24 Jun 07:29:58 07:33:16 30° 97° (E) 07:36:33 145.475/437.950
CUTE-I 24 Jun 07:41:50 07:47:03 48° 100° (E) 07:52:14 437.470
BEESAT 3 24 Jun 07:41:57 07:45:57 72° 242° (WSW) 07:49:52 437.485
STRAND 1 24 Jun 07:42:10 07:46:49 36° 70° (ENE) 07:51:30 437.568
O/OREOS (USA 219) 24 Jun 07:45:44 07:48:24 15° 57° (ENE) 07:51:02 437.305
NO-84 24 Jun 08:03:53 08:06:58 19° 237° (WSW) 08:09:57 435.350 FM
NUDT-PHONESAT 24 Jun 08:07:51 08:11:34 80° 281° (W) 08:15:13 437.300
HO-68 24 Jun 08:15:22 08:21:32 30° 96° (E) 08:27:38 435.675
XW-2F 24 Jun 08:18:13 08:21:48 44° 286° (WNW) 08:25:21 145.980 - 146.000
AO-7 24 Jun 08:18:48 08:19:03 10° 316° (NW) 08:19:18 .
AO-85 24 Jun 08:20:23 08:23:03 16° 249° (WSW) 08:25:48 145.980
XW-2D 24 Jun 08:21:05 08:24:35 37° 287° (WNW) 08:28:03 145.860 - 145.880
LilacSat-2 24 Jun 08:27:24 08:30:46 31° 288° (WNW) 08:34:06 437.200
SEEDS 24 Jun 08:29:19 08:32:13 18° 94° (E) 08:35:07 437.485
XW-2B 24 Jun 08:30:10 08:33:29 30° 288° (WNW) 08:36:48 145.730 - 145.750
BEESAT 2 24 Jun 08:37:06 08:41:03 51° 244° (WSW) 08:44:56 435.950
CUBEBUG 2 24 Jun 08:37:25 08:40:54 20° 93° (E) 08:44:18 437.445
CUTE 1.7 + AOD 2 24 Jun 08:42:41 08:46:42 43° 99° (E) 08:50:41 437.475
XW-2C 24 Jun 08:46:02 08:48:49 20° 291° (WNW) 08:51:34 145.795 - 145.815
DOVE 4 24 Jun 08:50:05 08:52:42 15° 295° (WNW) 08:55:23 437.250
KAITUO 1B 24 Jun 09:04:48 09:07:00 15° 292° (WNW) 09:09:11 145.475/437.950
ZACube-1 24 Jun 09:13:49 09:16:29 15° 92° (E) 09:19:04 437.345
UWE-3 24 Jun 09:14:09 09:18:10 29° 96° (E) 09:22:04 435.000/436.395/437.385
YUBILEINY 24 Jun 09:15:49 09:23:14 29° 70° (ENE) 09:30:33 435.215
STRAND 1 24 Jun 09:21:54 09:26:02 24° 265° (W) 09:30:12 437.568
CUTE-I 24 Jun 09:22:48 09:26:43 21° 295° (WNW) 09:30:37 437.470
XW-2A 24 Jun 09:23:25 09:26:49 70° 283° (WNW) 09:30:11 145.665 - 145.685
O/OREOS (USA 219) 24 Jun 09:23:46 09:28:06 49° 253° (WSW) 09:32:22 437.305
AAUSAT CUBESAT 2 24 Jun 09:24:29 09:28:17 36° 98° (E) 09:32:05 437.432
FO-29 24 Jun 09:31:48 09:36:20 22° 60° (ENE) 09:41:16 435.910
RS-15 24 Jun 09:33:26 09:42:55 29° 258° (WSW) 09:52:04 29.354- 29.394
Tancredo 1 24 Jun 09:34:21 09:37:23 85° 320° (NW) 09:40:25 437.200
ISS 24 Jun 09:34:37 09:37:42 40° 135° (SE) 09:40:48 437.550
TIGRISAT 24 Jun 09:56:22 09:59:28 18° 66° (ENE) 10:02:36 435.000
HO-68 24 Jun 10:02:35 10:09:24 48° 292° (WNW) 10:16:11 435.675
SEEDS 24 Jun 10:04:15 10:07:57 31° 288° (WNW) 10:11:37 437.485
M-CUBED/EXP-1 PRIME 24 Jun 10:08:25 10:11:45 75° 72° (ENE) 10:15:01 437.505
CUBEBUG 2 24 Jun 10:13:16 10:17:35 36° 289° (WNW) 10:21:48 437.445
AO-73 24 Jun 10:14:26 10:18:53 69° 101° (ESE) 10:23:11 145.935
PRISM 24 Jun 10:16:11 10:19:43 30° 70° (ENE) 10:23:15 437.425
CUTE 1.7 + AOD 2 24 Jun 10:19:50 10:22:09 15° 294° (WNW) 10:24:27 437.475
UNISAT 6 24 Jun 10:36:26 10:40:51 52° 73° (ENE) 10:45:23 437.425
Oscar 11 24 Jun 10:43:33 10:47:51 71° 284° (WNW) 10:52:07 .
ZACube-1 24 Jun 10:48:43 10:52:57 42° 288° (WNW) 10:57:04 437.345
UWE-3 24 Jun 10:50:45 10:54:27 24° 291° (WNW) 10:58:03 435.000/436.395/437.385
EO-88 24 Jun 10:53:11 10:55:59 21° 95° (E) 10:58:46 145.990 - 145.960
AAUSAT CUBESAT 2 24 Jun 11:00:52 11:03:25 16° 293° (WNW) 11:05:59 437.432
DELFI C3 24 Jun 11:05:05 11:08:55 48° 100° (E) 11:12:43 145.870
ISS 24 Jun 11:11:35 11:14:16 23° 331° (NNW) 11:16:59 437.550
Tancredo 1 24 Jun 11:11:47 11:13:22 13° 338° (NNW) 11:14:58 437.200
YUBILEINY 24 Jun 11:11:53 11:20:29 59° 269° (W) 11:29:00 435.215
FO-29 24 Jun 11:14:59 11:20:44 57° 261° (W) 11:27:17 435.910
TIGRISAT 24 Jun 11:31:28 11:35:47 42° 262° (W) 11:40:12 435.000
AIST 2D 24 Jun 11:31:49 11:34:29 20° 70° (ENE) 11:37:09 435.315
POLYITAN 1 24 Jun 11:44:36 11:47:18 17° 66° (ENE) 11:50:00 437.675
PRISM 24 Jun 11:52:08 11:55:00 19° 265° (W) 11:57:52 437.425
AO-73 24 Jun 11:53:33 11:54:27 11° 297° (WNW) 11:55:20 145.935
QB50P2 24 Jun 11:54:34 11:57:55 23° 69° (ENE) 12:01:18 145.880/145.840
PCSat 24 Jun 11:56:36 11:58:39 12° 102° (ESE) 12:00:42 145.827
UNISAT 6 24 Jun 12:15:29 12:17:51 14° 269° (W) 12:20:14 437.425
EO-79 24 Jun 12:18:55 12:22:51 39° 72° (ENE) 12:26:51 145.935-145.965
EO-88 24 Jun 12:26:45 12:29:33 21° 290° (WNW) 12:32:19 145.990 - 145.960
DUCHIFAT 1 24 Jun 12:34:32 12:38:35 48° 74° (ENE) 12:42:41 145.980
DELFI C3 24 Jun 12:41:52 12:43:13 12° 294° (WNW) 12:44:35 145.870
NANOSAT C BR1 24 Jun 12:42:06 12:46:18 68° 75° (ENE) 12:50:32 145.865
ESTCUBE 1 24 Jun 12:48:53 12:53:09 42° 99° (E) 12:57:22 437.505/2401.250
LO-87 24 Jun 12:53:23 12:57:02 84° 283° (WNW) 13:00:40 145.935 - 145.965
VELOX 1 24 Jun 12:59:00 13:00:27 11° 91° (E) 13:01:55 145.980
AIST 2D 24 Jun 13:04:50 13:07:34 20° 265° (W) 13:10:17 435.315
POLYITAN 1 24 Jun 13:18:44 13:22:43 39° 262° (W) 13:26:45 437.675
Gurwin Techsat 1B 24 Jun 13:20:11 13:22:29 13° 61° (ENE) 13:24:48 435.225
SPROUT 24 Jun 13:28:47 13:32:31 28° 97° (E) 13:36:14 437.525
QB50P2 24 Jun 13:29:57 13:33:33 27° 264° (W) 13:37:13 145.880/145.840
PCSat 24 Jun 13:35:52 13:41:17 79° 297° (WNW) 13:46:45 145.827
BUGSAT 1 24 Jun 13:50:07 13:54:12 76° 257° (WSW) 13:58:24 437.445
EO-79 24 Jun 13:56:13 13:58:46 15° 267° (W) 14:01:19 145.935-145.965
DUCHIFAT 1 24 Jun 14:12:38 14:14:30 13° 268° (W) 14:16:21 145.980
Oscar 19 24 Jun 14:13:51 14:18:58 68° 74° (ENE) 14:24:05 437.125/150
50 SAT 24 Jun 14:25:17 14:28:38 54° 100° (E) 14:31:59 437.505
Tancredo 1 24 Jun 14:26:17 14:26:57 11° 18° (NNE) 14:27:38 437.200
ESTCUBE 1 24 Jun 14:26:43 14:29:35 17° 294° (WNW) 14:32:27 437.505/2401.250
VELOX 1 24 Jun 14:32:52 14:37:13 58° 286° (WNW) 14:41:34 145.980
JUGNU 24 Jun 14:33:55 14:34:11 10° 169° (S) 14:34:25 437.505
ITAMSAT 1 24 Jun 14:52:08 14:54:01 12° 60° (ENE) 14:55:53 435.822/435.867
Gurwin Techsat 1B 24 Jun 14:56:25 15:01:43 79° 257° (WSW) 15:07:04 435.225
DX 1 24 Jun 14:56:43 15:01:06 82° 102° (ESE) 15:05:28 434.975-435.025
SPROUT 24 Jun 15:04:54 15:08:15 22° 291° (WNW) 15:11:36 437.525
SO-50 24 Jun 15:16:11 15:20:35 50° 116° (ESE) 15:24:59 436.795
UKube-1 24 Jun 15:16:36 15:20:57 89° 284° (WNW) 15:25:16 .
PCSat 24 Jun 15:23:13 15:25:34 13° 317° (NW) 15:27:56 145.827
AO-7 24 Jun 15:24:58 15:32:34 42° 63° (ENE) 15:40:13 .
Oscar 19 24 Jun 15:56:28 15:58:42 13° 269° (W) 16:00:57 437.125/150
MOZHAYETS 4 24 Jun 15:57:19 15:59:29 13° 91° (E) 16:01:39
Tancredo 1 24 Jun 16:00:10 16:03:09 49° 37° (NE) 16:06:06 437.200
ITUPSAT 1 24 Jun 16:03:02 16:06:56 25° 96° (E) 16:10:49 437.325
ISS 24 Jun 16:03:59 16:06:55 29° 31° (NNE) 16:09:51 437.550
BEESAT 24 Jun 16:13:36 16:17:54 32° 97° (E) 16:22:09 436.000
JUGNU 24 Jun 16:19:38 16:22:18 13° 180° (S) 16:24:58 437.505
ITAMSAT 1 24 Jun 16:27:31 16:32:42 83° 256° (WSW) 16:37:57 435.822/435.867
SO-50 24 Jun 16:58:03 17:01:17 19° 313° (NW) 17:04:32 436.795
AO-7 24 Jun 17:17:28 17:25:12 43° 260° (W) 17:33:03 .
MOZHAYETS 4 24 Jun 17:32:28 17:36:56 53° 286° (WNW) 17:41:22
Tancredo 1 24 Jun 17:36:58 17:38:25 13° 231° (SW) 17:39:51 437.200
KKS-1 24 Jun 17:38:59 17:42:15 20° 95° (E) 17:45:30 437.445
ISS 24 Jun 17:40:30 17:43:22 28° 227° (SW) 17:46:14 437.550
ITUPSAT 1 24 Jun 17:40:31 17:44:44 32° 291° (WNW) 17:48:56 437.325
BEESAT 24 Jun 17:51:39 17:55:29 24° 293° (WNW) 17:59:17 436.000
XW-2C 24 Jun 17:53:57 17:54:18 10° 65° (ENE) 17:54:40 145.795 - 145.815
SRMSAT 24 Jun 18:02:50 18:04:57 12° 174° (S) 18:07:04 437.500
JUGNU 24 Jun 18:09:27 18:10:26 10° 190° (S) 18:11:25 437.505
KAITUO 1B 24 Jun 18:09:50 18:11:24 12° 67° (ENE) 18:12:58 145.475/437.950
CUBESAT XI-V 24 Jun 18:10:01 18:14:36 68° 101° (E) 18:19:10 437.345
STARS 24 Jun 18:12:12 18:15:20 19° 94° (E) 18:18:27 437.465
DOVE 4 24 Jun 18:14:56 18:18:52 45° 73° (ENE) 18:22:56 437.250
HO-68 24 Jun 18:43:40 18:48:31 20° 58° (ENE) 18:53:22 435.675
NUDT-PHONESAT 24 Jun 18:45:12 18:48:35 32° 72° (ENE) 18:51:58 437.300
XW-2F 24 Jun 18:56:39 19:00:25 60° 76° (ENE) 19:04:12 145.980 - 146.000
XW-2D 24 Jun 18:59:45 19:03:35 73° 76° (ENE) 19:07:25 145.860 - 145.880
CUTE-I 24 Jun 19:01:49 19:07:05 66° 73° (ENE) 19:12:23 437.470
LilacSat-2 24 Jun 19:06:34 19:10:26 88° 258° (WSW) 19:14:19 437.200
XW-2B 24 Jun 19:08:42 19:12:32 89° 256° (WSW) 19:16:24 145.730 - 145.750
KKS-1 24 Jun 19:14:47 19:18:51 35° 289° (WNW) 19:22:54 437.445
SEEDS 24 Jun 19:21:08 19:22:15 11° 64° (ENE) 19:23:21 437.485
XW-2C 24 Jun 19:24:13 19:27:59 53° 260° (W) 19:31:47 145.795 - 145.815
CUTE 1.7 + AOD 2 24 Jun 19:33:46 19:37:15 25° 70° (ENE) 19:40:43 437.475
CUBEBUG 2 24 Jun 19:34:30 19:36:59 15° 64° (ENE) 19:39:30 437.445
KAITUO 1B 24 Jun 19:41:24 19:45:00 41° 261° (W) 19:48:37 145.475/437.950
STARS 24 Jun 19:47:41 19:51:44 36° 289° (WNW) 19:55:47 437.465
CUBESAT XI-V 24 Jun 19:49:53 19:51:21 11° 297° (WNW) 19:52:50 437.345
SRMSAT 24 Jun 19:50:52 19:53:14 12° 184° (S) 19:55:35 437.500
XW-2A 24 Jun 19:53:02 19:55:55 25° 72° (ENE) 19:58:50 145.665 - 145.685
DOVE 4 24 Jun 19:55:11 19:56:52 12° 269° (W) 19:58:34 437.250
STRAND 1 24 Jun 19:55:53 19:58:28 14° 91° (E) 20:01:03 437.568
ZACube-1 24 Jun 20:09:18 20:10:34 11° 63° (ENE) 20:11:51 437.345
UWE-3 24 Jun 20:09:32 20:12:53 20° 67° (ENE) 20:16:17 435.000/436.395/437.385
AAUSAT CUBESAT 2 24 Jun 20:13:22 20:16:21 20° 69° (ENE) 20:19:20 437.432
NUDT-PHONESAT 24 Jun 20:20:27 20:22:33 14° 267° (W) 20:24:40 437.300
HO-68 24 Jun 20:28:13 20:35:25 78° 255° (WSW) 20:42:39 435.675
CUTE-I 24 Jun 20:44:56 20:47:34 14° 269° (W) 20:50:12 437.470
AO-85 24 Jun 20:52:57 20:55:57 20° 112° (ESE) 20:58:52 145.980
SEEDS 24 Jun 20:53:14 20:57:24 60° 260° (W) 21:01:33 437.485
AO-73 24 Jun 21:07:33 21:11:49 42° 73° (ENE) 21:16:08 145.935
CUBEBUG 2 24 Jun 21:08:37 21:13:03 54° 261° (W) 21:17:40 437.445
CUTE 1.7 + AOD 2 24 Jun 21:09:29 21:12:59 25° 265° (W) 21:16:29 437.475
XW-2A 24 Jun 21:26:38 21:28:40 15° 266° (W) 21:30:42 145.665 - 145.685
BEESAT 3 24 Jun 21:30:09 21:33:30 27° 113° (ESE) 21:36:54 437.485
STRAND 1 24 Jun 21:32:55 21:38:02 63° 287° (WNW) 21:43:06 437.568
Oscar 11 24 Jun 21:36:00 21:40:19 68° 75° (ENE) 21:44:38 .
RS-15 24 Jun 21:38:55 21:50:35 58° 111° (ESE) 22:02:31 29.354- 29.394
ZACube-1 24 Jun 21:41:40 21:46:11 72° 260° (W) 21:50:46 437.345
NO-84 24 Jun 21:42:30 21:44:29 14° 120° (ESE) 21:46:33 435.350 FM
UWE-3 24 Jun 21:44:50 21:49:02 37° 263° (W) 21:53:20 435.000/436.395/437.385
AAUSAT CUBESAT 2 24 Jun 21:47:58 21:51:36 29° 263° (W) 21:55:14 437.432
DELFI C3 24 Jun 21:49:12 21:52:12 21° 70° (ENE) 21:55:13 145.870
O/OREOS (USA 219) 24 Jun 21:55:49 21:59:22 23° 102° (ESE) 22:02:54 437.305
YUBILEINY 24 Jun 22:14:39 22:22:17 35° 85° (E) 22:29:56 435.215
HO-68 24 Jun 22:22:11 22:24:07 11° 272° (W) 22:26:05 435.675
PCSat 24 Jun 22:25:31 22:30:53 56° 59° (ENE) 22:36:11 145.827
FO-29 24 Jun 22:25:53 22:32:24 28° 93° (E) 22:38:47 435.910
BEESAT 2 24 Jun 22:26:24 22:30:05 38° 115° (ESE) 22:33:51 435.950
UNISAT 6 24 Jun 22:31:45 22:33:51 13° 90° (E) 22:35:56 437.425
AO-85 24 Jun 22:32:28 22:36:07 31° 306° (NW) 22:39:41 145.980
AO-73 24 Jun 22:45:18 22:48:12 17° 268° (W) 22:51:08 145.935
EO-88 24 Jun 23:01:33 23:05:12 66° 260° (W) 23:08:51 145.990 - 145.960
BEESAT 3 24 Jun 23:07:44 23:11:01 24° 309° (NW) 23:14:21 437.485
NO-84 24 Jun 23:17:38 23:21:31 63° 318° (NW) 23:25:41 435.350 FM
M-CUBED/EXP-1 PRIME 24 Jun 23:21:26 23:25:10 73° 107° (ESE) 23:29:11 437.505
DELFI C3 24 Jun 23:23:39 23:26:50 24° 264° (W) 23:30:03 145.870
TIGRISAT 24 Jun 23:24:30 23:29:00 46° 99° (E) 23:33:22 435.000
LO-87 24 Jun 23:27:54 23:30:55 27° 72° (ENE) 23:33:58 145.935 - 145.965
PRISM 24 Jun 23:33:29 23:37:34 63° 102° (ESE) 23:41:38 437.425
O/OREOS (USA 219) 24 Jun 23:34:31 23:38:34 31° 297° (WNW) 23:42:36 437.305
ESTCUBE 1 24 Jun 23:46:40 23:50:38 31° 70° (ENE) 23:54:36 437.505/2401.250
SO-50 24 Jun 23:49:10 23:53:06 28° 51° (NE) 23:57:03 436.795
RS-15 24 Jun 23:51:55 00:03:27 46° 314° (NW) 00:15:12 29.354- 29.394
BEESAT 2 25 Jun 00:05:09 00:07:59 18° 312° (NW) 00:10:52 435.950
UNISAT 6 25 Jun 00:06:20 00:10:54 56° 286° (WNW) 00:15:21 437.425
FO-29 25 Jun 00:10:01 00:17:41 60° 289° (WNW) 00:25:16 435.910
PCSat 25 Jun 00:10:13 00:13:45 18° 255° (WSW) 00:17:17 145.827
YUBILEINY 25 Jun 00:10:21 00:18:44 48° 284° (WNW) 00:27:13 435.215
SPROUT 25 Jun 00:21:00 00:23:54 18° 67° (ENE) 00:26:48 437.525
NANOSAT C BR1 25 Jun 00:30:03 00:31:48 12° 92° (E) 00:33:33 145.865
AIST 2D 25 Jun 00:30:54 00:33:59 29° 97° (E) 00:37:03 435.315
50 SAT 25 Jun 00:56:36 00:58:32 15° 68° (ENE) 01:00:29 437.505
NO-84 25 Jun 00:57:32 00:59:52 14° 337° (NNW) 01:02:16 435.350 FM
LO-87 25 Jun 01:02:14 01:04:22 15° 266° (W) 01:06:31 145.935 - 145.965
TIGRISAT 25 Jun 01:02:18 01:05:15 17° 295° (WNW) 01:08:09 435.000
POLYITAN 1 25 Jun 01:05:05 01:09:03 36° 98° (E) 01:12:57 437.675
PRISM 25 Jun 01:12:01 01:12:17 10° 297° (WNW) 01:12:33 437.425
QB50P2 25 Jun 01:15:41 01:19:53 53° 100° (E) 01:24:02 145.880/145.840
ESTCUBE 1 25 Jun 01:23:58 01:27:26 22° 265° (W) 01:30:55 437.505/2401.250
VELOX 1 25 Jun 01:27:52 01:32:14 83° 256° (WSW) 01:36:39 145.980
SO-50 25 Jun 01:29:35 01:33:30 29° 247° (WSW) 01:37:27 436.795
BUGSAT 1 25 Jun 01:34:28 01:37:21 18° 94° (E) 01:40:13 437.445
EO-79 25 Jun 01:40:26 01:44:44 85° 281° (W) 01:48:59 145.935-145.965
DX 1 25 Jun 01:50:13 01:54:25 55° 74° (ENE) 01:58:39 434.975-435.025
DUCHIFAT 1 25 Jun 01:55:27 01:59:42 71° 284° (WNW) 02:03:54 145.980
SPROUT 25 Jun 01:55:36 01:59:30 35° 262° (W) 02:03:28 437.525
FO-29 25 Jun 01:58:40 02:01:08 12° 307° (NW) 02:03:36 435.910
NANOSAT C BR1 25 Jun 02:03:38 02:07:46 49° 286° (WNW) 02:11:51 145.865
AIST 2D 25 Jun 02:05:02 02:06:54 14° 292° (WNW) 02:08:45 435.315
UKube-1 25 Jun 02:08:57 02:13:10 60° 74° (ENE) 02:17:24 .
RS-15 25 Jun 02:12:13 02:20:27 19° 345° (NNW) 02:28:39 29.354- 29.394
Oscar 19 25 Jun 02:27:41 02:31:59 27° 96° (E) 02:36:15 437.125/150
50 SAT 25 Jun 02:28:15 02:31:06 25° 263° (W) 02:33:57 437.505
POLYITAN 1 25 Jun 02:41:37 02:44:31 18° 293° (WNW) 02:47:25 437.675
QB50P2 25 Jun 02:53:17 02:55:10 13° 295° (WNW) 02:57:02 145.880/145.840
MOZHAYETS 4 25 Jun 02:58:33 03:00:03 11° 63° (ENE) 03:01:34
ITUPSAT 1 25 Jun 03:08:07 03:11:59 25° 67° (ENE) 03:15:51 437.325
BUGSAT 1 25 Jun 03:08:55 03:12:46 34° 289° (WNW) 03:16:36 437.445
Gurwin Techsat 1B 25 Jun 03:14:29 03:19:38 47° 100° (E) 03:24:44 435.225
BEESAT 25 Jun 03:18:13 03:22:25 31° 69° (ENE) 03:26:38 436.000
DX 1 25 Jun 03:29:28 03:30:54 11° 268° (W) 03:32:21 434.975-435.025
AO-7 25 Jun 03:31:48 03:34:37 12° 89° (E) 03:37:26 .
UKube-1 25 Jun 03:48:52 03:49:32 10° 269° (W) 03:50:12 .
Oscar 19 25 Jun 04:06:44 04:11:16 33° 291° (WNW) 04:15:48 437.125/150
NO-84 25 Jun 04:16:41 04:18:32 12° 20° (NNE) 04:20:25 435.350 FM
RS-15 25 Jun 04:30:33 04:39:34 22° 23° (NNE) 04:48:18 29.354- 29.394
MOZHAYETS 4 25 Jun 04:31:57 04:36:35 70° 259° (WSW) 04:41:14
KKS-1 25 Jun 04:36:05 04:38:40 15° 65° (ENE) 04:41:15 437.445
ITAMSAT 1 25 Jun 04:42:18 04:47:13 40° 98° (E) 04:52:06 435.822/435.867
ITUPSAT 1 25 Jun 04:45:19 04:49:37 32° 263° (W) 04:53:57 437.325
Gurwin Techsat 1B 25 Jun 04:55:20 04:59:12 21° 295° (WNW) 05:03:02 435.225
BEESAT 25 Jun 04:56:16 05:00:10 25° 264° (W) 05:04:05 436.000
STARS 25 Jun 05:08:00 05:10:18 14° 64° (ENE) 05:12:37 437.465
CUBESAT XI-V 25 Jun 05:11:14 05:15:45 54° 74° (ENE) 05:20:16 437.345
AO-7 25 Jun 05:20:11 05:28:36 74° 106° (ESE) 05:36:56 .
AO-85 25 Jun 05:25:28 05:27:24 13° 46° (NE) 05:29:22 145.980
BEESAT 3 25 Jun 05:49:36 05:51:05 12° 44° (NE) 05:52:34 437.485
NO-84 25 Jun 05:52:55 05:57:07 43° 39° (NE) 06:01:11 435.350 FM
